[[{"header":{"parameterUnit":"m.s-1","parameterCategory":1,"la1":30.2991,"la2":30.254,"lo1":-89.0895,"lo2":-89.0444,"dy":0.0017,"dx":0.0017,"nx":28,"ny":28,"refTime":"2024-09-02T21:00:00:Z","depth":0,"parameterNumber":2,"parameterNumberName":"U-component_of_WINDS"},"data":[0,0,0,0,0,0,0,0,0,0,0,0,0,0,0,0,0,0,0,0,0,0,0,0,0,0,0,0,0,0,0,0,0,0,0,0,0,0,0,0,0,0,0,0,0,0,0,0,0,0,0,0,0,0,0,0,0,0,-3.3348,-3.335,0,-3.3525,-3.3527,-3.3529,-3.351,-3.3508,-3.3505,-3.3502,-3.3673,-3.3679,-3.3686,0,0,0,0,0,0,0,0,0,0,0,0,0,-3.2988,-3.2995,-3.3348,-3.335,-3.3352,-3.3524,-3.3527,-3.3529,-3.3511,-3.3508,-3.3504,-3.3501,-3.367,-3.3679,-3.3687,0,0,0,0,0,0,0,0,0,0,0,0,0,-3.3152,-3.2997,-3.3347,-3.3364,-3.3367,-3.3524,-3.3527,-3.353,-3.3512,-3.3507,-3.3503,-3.3499,-3.3667,-3.3678,-3.3688,-3.3836,0,0,-3.3721,-3.3725,0,0,0,0,0,0,0,0,-3.3143,-3.3166,-3.3359,-3.3363,-3.3367,-3.3492,-3.3462,-3.3632,-3.3513,-3.3456,-3.3502,-3.3497,-3.3615,-3.363,-3.3671,-3.3844,-3.3851,-3.3722,-3.3728,-3.3733,-3.3736,0,0,0,0,0,0,0,-3.3132,-3.3158,-3.3417,-3.3362,-3.3367,-3.3361,-3.338,-3.3494,-3.3556,-3.3461,-3.346,-3.3482,-3.3616,-3.3661,-3.3675,-3.3854,-3.3721,-3.3731,-3.3737,-3.3742,-3.4162,-3.4166,0,0,0,0,0,0,-3.3118,-3.3149,-3.3412,-3.3423,-3.3243,-3.3371,-3.3392,-3.3456,-3.3555,-3.3566,-3.3485,-3.348,-3.3645,-3.3663,-3.3681,-3.3865,-3.3733,-3.3743,-3.3749,-3.4157,-3.4163,-3.4168,0,0,0,0,0,0,-3.311,-3.3141,-3.3405,-3.3286,-3.3319,-3.3381,-3.3453,-3.3461,-3.3506,-3.3574,-3.3583,-3.3521,-3.3643,-3.3666,-3.38,-3.387,-3.3747,-3.3757,-3.4151,-3.4159,-3.4165,-3.423,0,0,0,0,0,0,-3.31,-3.3139,-3.3196,-3.3287,-3.3325,-3.3522,-3.3457,-3.3468,-3.3526,-3.3521,-3.3609,-3.362,-3.3641,-3.3784,-3.381,-3.3883,-3.3765,-3.4145,-3.4155,-3.4163,-3.4222,-3.4239,-3.4253,0,0,0,0,0,-3.3087,-3.3204,-3.3199,-3.3231,-3.3399,-3.3526,-3.3548,-3.3573,-3.3532,-3.359,-3.3634,-3.3617,-3.3858,-3.3798,-3.3827,-3.3904,-3.4141,-3.4152,-3.4162,-3.4215,-3.4236,-3.4253,0,0,0,0,0,0,-3.3114,-3.3216,-3.3212,-3.3362,-3.3437,-3.3523,-3.3597,-3.3593,-3.3677,-3.3669,-3.3694,-3.3714,-3.385,-3.3889,-3.382,-3.4055,-3.3994,-3.4011,-3.4024,-3.4044,-3.4059,-3.4046,-3.3774,0,0,0,0,0,-3.3139,-3.3236,-3.3318,-3.3443,-3.3481,-3.3533,-3.3589,-3.3604,-3.3679,-3.3709,-3.3763,-3.3835,-3.3928,-3.3987,-3.4076,-3.4228,-3.4248,-3.4295,-3.4311,-3.4323,-3.4338,-3.4425,-3.4448,-3.4203,-3.4203,-3.4203,0,0,-3.3188,-3.3256,-3.3315,-3.3451,-3.351,-3.3609,-3.3559,-3.3664,-3.3738,-3.3724,-3.3856,-3.3898,-3.398,-3.4125,-3.4191,-3.4162,-3.441,-3.4337,-3.4346,-3.4354,-3.4439,-3.4462,-3.4482,-3.4211,-3.4209,-3.4208,0,0,-3.333,-3.3391,-3.3504,-3.3566,-3.3659,-3.3694,-3.3721,-3.381,-3.3839,-3.3973,-3.3966,-3.4052,-3.421,-3.4271,-3.4322,-3.4494,-3.4482,-3.4522,-3.4602,-3.4687,-3.4707,-3.4724,-3.4788,-3.4811,-3.4536,-3.4536,-3.4536,0,-3.3379,-3.3532,-3.3561,-3.3671,-3.3732,-3.373,-3.3845,-3.3902,-3.4017,-3.4058,-3.4025,-3.4228,-3.4282,-3.4444,-3.4487,-3.4527,-3.456,-3.4512,-3.4702,-3.472,-3.4736,-3.4798,-3.4822,-3.454,-3.454,-3.4539,-3.4539,0,-3.3589,-3.3695,-3.3775,-3.3893,-3.3962,-3.4073,-3.412,-3.4186,-3.4196,-3.4234,-3.4371,-3.4438,-3.4542,-3.4581,-3.4588,-3.4745,-3.4725,-3.4697,-3.4636,-3.4764,-3.4822,-3.4846,-3.4547,-3.4545,-3.4544,-3.4543,0,0,-3.3749,-3.3888,-3.3917,-3.3973,-3.4078,-3.4159,-3.4271,-3.4378,-3.4436,-3.4516,-3.4611,-3.4748,-3.4725,-3.4783,-3.4798,-3.4873,-3.5009,-3.4836,-3.4838,-3.4868,-3.519,-3.5211,-3.5238,-3.5002,-3.5007,-3.5011,-3.5184,0,-3.3904,-3.4107,-3.414,-3.4317,-3.4417,-3.4419,-3.4517,-3.4591,-3.4631,-3.472,-3.4761,-3.486,-3.4821,-3.4857,-3.4931,-3.4977,-3.5074,-3.4965,-3.5091,-3.5095,-3.5072,-3.5268,-3.529,-3.545,-3.5206,-3.521,-3.5213,0,-3.411,-3.4203,-3.4392,-3.449,-3.4532,-3.462,-3.4724,-3.4809,-3.4894,-3.4918,-3.4987,-3.4994,-3.511,-3.5046,-3.5206,-3.5131,-3.5185,-3.5216,-3.5222,-3.5236,-3.5162,-3.5289,-3.5502,-3.5526,-3.5248,-3.5246,-3.5243,0,-3.4212,-3.4384,-3.4521,-3.4568,-3.4684,-3.4746,-3.4797,-3.4878,-3.4942,-3.5032,-3.5074,-3.5174,-3.5228,-3.5305,-3.5339,-3.5288,-3.5499,-3.5436,-3.5522,-3.5521,-3.5566,-3.5563,-3.5793,-3.5598,-3.5597,-3.5597,-3.5596,0,-3.4382,-3.4498,-3.457,-3.4654,-3.4785,-3.4822,-3.495,-3.4998,-3.5071,-3.5164,-3.517,-3.5256,-3.5296,-3.5388,-3.5415,-3.5546,-3.5569,-3.5591,-3.5597,-3.5592,-3.559,-3.5628,-3.5618,-3.5603,-3.5602,-3.5601,-3.5599,0,-3.4517,-3.4569,-3.472,-3.482,-3.4848,-3.494,-3.5025,-3.5107,-3.5148,-3.5266,-3.5295,-3.5359,-3.5469,-3.5512,-3.5642,-3.5661,-3.5813,-3.5809,-3.5787,-3.5789,-3.5873,-3.5866,-3.6137,-3.6175,-3.5953,-3.5955,-3.5957,0,-3.4622,-3.4713,-3.4826,-3.4891,-3.4946,-3.505,-3.5118,-3.5158,-3.5228,-3.5336,-3.5405,-3.5516,-3.5606,-3.5781,-3.5838,-3.594,-3.5939,-3.6027,-3.5954,-3.5948,-3.5944,-3.5939,-3.5949,-3.6041,-3.6043,-3.6045,-3.6046,0,-3.4805,-3.4829,-3.4928,-3.504,-3.5122,-3.521,-3.5294,-3.5347,-3.54,-3.5478,-3.5594,-3.5666,-3.5805,-3.5915,-3.6022,-3.607,-3.6068,-3.607,-3.6095,-3.6091,-3.6076,-3.6089,-3.5826,-3.6063,-3.6061,-3.606,-3.6059,-3.6058,-3.493,-3.5013,-3.5108,-3.522,-3.529,-3.5372,-3.5456,-3.5511,-3.5609,-3.573,-3.5746,-3.5871,-3.5957,-3.6101,-3.6155,-3.6252,-3.6228,-3.6264,-3.6274,-3.6283,-3.6291,-3.606,-3.6271,-3.627,-3.627,-3.627,-3.6269,0,-3.5116,-3.5179,-3.5282,-3.5405,-3.5494,-3.549,-3.5585,-3.5659,-3.5771,-3.5853,-3.5946,-3.608,-3.6189,-3.6257,-3.6366,-3.643,-3.6432,-3.6458,-3.6454,-3.6466,-3.6304,-3.6273,-3.6455,-3.6455,-3.6455,-3.6455,-3.6455,-3.6455,-3.5223,-3.5365,-3.5401,-3.5578,-3.5639,-3.5766,-3.5822,-3.5897,-3.5964,-3.6117,-3.6209,-3.6255,-3.6332,-3.6448,-3.6548,-3.6565,-3.6605,-3.6633,-3.6648,-3.6496,-3.6477,-3.6458,-3.6429,-3.6641,-3.6642,-3.6803,-3.6804,-3.6805]},{"header":{"parameterUnit":"m.s-1","parameterCategory":1,"la1":30.2991,"la2":30.254,"lo1":-89.0895,"lo2":-89.0444,"dy":0.0017,"dx":0.0017,"nx":28,"ny":28,"refTime":"2024-09-02T21:00:00:Z","depth":0,"parameterNumber":3,"parameterNumberName":"V-component_of_WINDS"},"data":[0,0,0,0,0,0,0,0,0,0,0,0,0,0,0,0,0,0,0,0,0,0,0,0,0,0,0,0,0,0,0,0,0,0,0,0,0,0,0,0,0,0,0,0,0,0,0,0,0,0,0,0,0,0,0,0,0,0,3.1275,3.1278,0,3.1553,3.1556,3.1559,3.167,3.1669,3.1668,3.1668,3.1947,3.1954,3.1962,0,0,0,0,0,0,0,0,0,0,0,0,0,3.0835,3.0842,3.1274,3.1278,3.1282,3.1552,3.1556,3.156,3.167,3.1669,3.1668,3.1667,3.1944,3.1953,3.1963,0,0,0,0,0,0,0,0,0,0,0,0,0,3.106,3.0845,3.1274,3.1369,3.138,3.1552,3.1556,3.1561,3.167,3.1669,3.1668,3.1667,3.1941,3.1953,3.1964,3.206,0,0,3.2001,3.2007,0,0,0,0,0,0,0,0,3.1048,3.1076,3.1352,3.1363,3.1376,3.1576,3.1504,3.1728,3.167,3.156,3.1668,3.1666,3.1824,3.1845,3.19,3.2073,3.2085,3.2003,3.201,3.2015,3.2018,0,0,0,0,0,0,0,3.1032,3.1065,3.1385,3.1355,3.137,3.1397,3.1428,3.1547,3.1694,3.1569,3.1578,3.161,3.183,3.1888,3.1907,3.2089,3.2002,3.2013,3.202,3.2025,3.2355,3.2356,0,0,0,0,0,0,3.1001,3.1051,3.1376,3.1393,3.1206,3.1405,3.144,3.1512,3.1693,3.172,3.161,3.1614,3.1867,3.1893,3.1917,3.2041,3.2015,3.2026,3.2033,3.2353,3.2355,3.2357,0,0,0,0,0,0,3.0991,3.1029,3.1364,3.1225,3.127,3.1414,3.1494,3.1518,3.1576,3.1724,3.175,3.1642,3.1868,3.19,3.2024,3.2052,3.2032,3.2043,3.2352,3.2354,3.2356,3.2289,0,0,0,0,0,0,3.0978,3.1025,3.1063,3.1225,3.1277,3.1468,3.1496,3.1525,3.1597,3.1605,3.1761,3.1786,3.1869,3.2005,3.2036,3.2068,3.2052,3.235,3.2353,3.2355,3.2289,3.2288,3.2288,0,0,0,0,0,3.0962,3.1032,3.1065,3.1103,3.1328,3.1469,3.1499,3.1595,3.1599,3.1639,3.1734,3.1781,3.2044,3.2017,3.2053,3.2089,3.2348,3.2352,3.2355,3.2289,3.2288,3.2288,0,0,0,0,0,0,3.0868,3.1055,3.1093,3.1218,3.1327,3.1488,3.154,3.1591,3.17,3.1702,3.1815,3.1849,3.1963,3.2039,3.2005,3.2191,3.22,3.221,3.2137,3.2138,3.2137,3.2116,3.2062,0,0,0,0,0,3.0862,3.0962,3.112,3.1214,3.1267,3.1394,3.1459,3.1524,3.1641,3.1687,3.1792,3.1902,3.201,3.2078,3.2186,3.2301,3.2336,3.2343,3.2343,3.2341,3.2349,3.2416,3.2421,3.2368,3.2368,3.2368,0,0,3.0849,3.0964,3.102,3.1198,3.129,3.1391,3.1432,3.1536,3.1612,3.1703,3.1827,3.1907,3.2038,3.2158,3.2216,3.2224,3.2372,3.2346,3.2344,3.2352,3.242,3.2424,3.2429,3.237,3.237,3.237,0,0,3.0879,3.0976,3.1066,3.1158,3.1298,3.1382,3.1403,3.1558,3.1615,3.1742,3.1813,3.1903,3.2086,3.2177,3.2247,3.2312,3.2359,3.2343,3.234,3.2403,3.2408,3.2412,3.2435,3.2442,3.2351,3.235,3.235,0,3.0845,3.1001,3.1105,3.1206,3.1282,3.1372,3.1463,3.1547,3.1713,3.1763,3.1771,3.2004,3.2098,3.2241,3.2257,3.2311,3.2338,3.2326,3.2399,3.2404,3.241,3.2433,3.2441,3.2348,3.2348,3.2348,3.2349,0,3.0953,3.106,3.1115,3.1277,3.1359,3.1454,3.1572,3.1642,3.17,3.1783,3.1911,3.2028,3.216,3.2199,3.2256,3.235,3.2351,3.2377,3.2388,3.241,3.2434,3.2443,3.2344,3.2345,3.2345,3.2346,0,0,3.0929,3.1148,3.1167,3.1241,3.1403,3.1487,3.1587,3.1719,3.1777,3.1889,3.1975,3.2129,3.2155,3.2234,3.2302,3.2358,3.2402,3.2378,3.2382,3.2378,3.2513,3.2491,3.25,3.2435,3.2437,3.2439,3.2502,0,3.098,3.1164,3.126,3.1402,3.1502,3.1589,3.1676,3.1783,3.1864,3.1959,3.2047,3.2155,3.2181,3.2229,3.2289,3.2384,3.243,3.2381,3.2514,3.2518,3.2478,3.2513,3.2491,3.2544,3.2512,3.2513,3.2514,0,3.1063,3.1177,3.1329,3.148,3.1526,3.1602,3.1731,3.1822,3.1946,3.2,3.2089,3.2157,3.2264,3.2268,3.2416,3.238,3.2441,3.2496,3.25,3.2515,3.2516,3.2528,3.2564,3.2571,3.253,3.2529,3.2528,0,3.103,3.1221,3.1337,3.1398,3.1577,3.1629,3.1706,3.1829,3.1903,3.2015,3.2064,3.2186,3.2253,3.2346,3.2444,3.2438,3.2583,3.2595,3.263,3.2627,3.2656,3.2652,3.2701,3.2696,3.2695,3.2695,3.2695,0,3.1076,3.1166,3.1325,3.1396,3.1499,3.1609,3.1707,3.179,3.19,3.1988,3.207,3.215,3.2276,3.2372,3.2449,3.2561,3.259,3.2636,3.2656,3.2629,3.2623,3.2669,3.2667,3.2698,3.2697,3.2697,3.2696,0,3.1056,3.1166,3.1299,3.1458,3.1501,3.1569,3.1705,3.1777,3.1863,3.1973,3.2005,3.2138,3.2256,3.2364,3.2519,3.2571,3.2683,3.2708,3.2642,3.2652,3.2681,3.2677,3.2761,3.2777,3.276,3.276,3.276,0,3.1078,3.1149,3.1317,3.1383,3.1459,3.1563,3.164,3.1751,3.1826,3.1974,3.2027,3.2151,3.2256,3.2439,3.2549,3.2668,3.2697,3.2718,3.2715,3.2686,3.2696,3.2691,3.2698,3.2716,3.2715,3.2715,3.2715,0,3.1105,3.1156,3.1263,3.139,3.1479,3.1583,3.169,3.1739,3.187,3.1951,3.2073,3.2154,3.2315,3.2436,3.2568,3.2646,3.2702,3.2715,3.273,3.2702,3.2661,3.2683,3.2637,3.2712,3.2713,3.2713,3.2713,3.2713,3.1107,3.1174,3.1303,3.142,3.1513,3.1611,3.1687,3.1782,3.1887,3.2027,3.2086,3.2209,3.2332,3.2516,3.2593,3.2691,3.2702,3.2723,3.2728,3.2732,3.2726,3.2646,3.2715,3.2715,3.2716,3.2716,3.2716,0,3.1138,3.1225,3.1332,3.148,3.1571,3.1618,3.174,3.1813,3.1921,3.2032,3.2134,3.2274,3.2393,3.2512,3.2637,3.2692,3.2721,3.2721,3.2718,3.2735,3.2709,3.2684,3.2696,3.2696,3.2696,3.2696,3.2696,3.2696,3.1165,3.1281,3.1348,3.1511,3.1599,3.1722,3.1787,3.1878,3.1967,3.212,3.222,3.2298,3.2412,3.2547,3.2657,3.2689,3.2731,3.2724,3.2763,3.2736,3.2737,3.2737,3.2714,3.2732,3.2732,3.2781,3.2781,3.2782]}]]